User: anonymous   Login
Location: Fort Wayne
(41.1310°N, 85.1290°W)
Time: 14:04:18
(UTC-04:00)
Language:

Cosmos 2056 Rocket - Orbit

View from above orbital plane
View from above orbital plane
View from above satellite
View from above satellite

Ground track
Ground track

The orbit data is extracted from the following two-line orbital elements,

1 20433U 90004B   16125.25686470  .00000070  00000-0  33066-4 0  9997
2 20433  74.0381  26.8366 0042038 255.9489 240.5559 14.35929232376508
Epoch (UTC): 04 May 2016 06:09:53
Eccentricity: 0.0042038
inclination: 74.0381°
perigee height: 742 km
apogee height: 802 km
right ascension of ascending node: 26.8366°
argument of perigee: 255.9489°
revolutions per day: 14.35929232
mean anomaly at epoch: 240.5559°
orbit number at epoch: 37650

The dashed part of the orbit path shows where the satellite is in the earth's shadow,  

DLR